Search for airport 
image banner adimage banner ad
image banner ad

DFOB - Banfora

Located in , Burkina Faso

ICAO - DFOB, IATA - BNR

Data provided by Airmate  

General information

Coordinates: N10°41'0" W4°43'0"
Elevation is 984 feet MSL.
 
View others Airports in Comoe

Operational data

Open for public use
Current time UTC:
Current local time:
Weather at : DFOO - Bobo-Dioulasso ( 69 km )
METAR: DFOO 241700Z 04005KT 320V090 CAVOK 33/04 Q1011
TAF: TAF DFOO 241700Z 2418/2518 04010KT 8000 NSC TEMPO 2506/2510 4000 HZ
View NOTAMs / SUP AIP / TFR affecting this airport [VIEW]
Communications frequencies: [VIEW]

Runways:

Airport contact information

Address: Burkina Faso

Satellite view of DFOB